www.pogodaiklimat.ru

Погода и климат >> Архив погоды >> Япония >> Хиросима


АРХИВ ПОГОДЫ в Хиросиме

Время (UTC), дата Ветер
(напр.,м/с)
 
Видим.   Явления Облачность Т
(С)
Тd
(С)
f
(%)
Тe
(С)
Тes
(С)
Комфортность P
(гПа)
Po
(гПа)
Тmin
(С)
Tmax
(С)
R
(мм)
R24
(мм)
S
(см)
10 13.09 Ю 3 н/о н/о +27.9 +20.0 62 +34 +34 очень
душно
1010.6 1004.5
11 13.09 ЮВ 4 н/о н/о +28.1 +18.2 55 +33 +33 очень
душно
1011.6 1005.5
12 13.09 СВ 2 20 км {ливн. осадки} 8/8
[Cu med, cong]
+27.6 +18.3 57 +32 +32 очень
душно
1011.8 1005.7 +31.4 0.0
13 13.09 В 2 н/о н/о +27.3 +18.3 58 +32 +32 очень
душно
1012.0 1005.9
14 13.09 СВ 3 н/о н/о +26.8 +18.7 61 +32 +32 очень
душно
1012.1 1006.0
15 13.09 СВ 4 н/о н/о +26.1 +18.5 63 +31 +31 очень
душно
1011.7 1005.6
16 13.09 СВ 3 н/о н/о +25.8 +18.5 64 +31 +31 очень
душно
1011.5 1005.3
17 13.09 С 3 н/о н/о +25.9 +18.6 64 +31 +31 очень
душно
1011.4 1005.2
18 13.09 С 2 20 км 9/9
[Cu med, cong]
+25.4 +18.6 66 +30 +30 душно 1011.4 1005.2
19 13.09 С 3 н/о н/о +25.2 +18.6 67 +30 +30 душно 1011.5 1005.3
21 13.09 С 3 20 км в посл. час ливневой дождь 9/9
[Cu Sc Ac As]
+24.8 +19.0 70 +30 +30 душно 1011.4 1005.2
00 14.09 С 3 20 км {ливн. осадки} 8/8
[Cu med, cong]
+26.4 +19.3 65 +32 +33 очень
душно
1012.1 1006.0 +24.6 0.0
01 14.09 С 2 н/о н/о +27.0 +19.1 62 +32 +32 очень
душно
1011.8 1005.7
02 14.09 С 2 н/о н/о +29.3 +19.0 54 +35 +35 очень
душно
1011.2 1005.1
03 14.09 СЗ 2 25 км 6/5
[Cu med, cong Ac trans]
+30.4 +19.8 53 +37 +44 очень
душно
1010.4 1004.4
04 14.09 Ю 3 н/о н/о +30.9 +19.3 50 +37 +37 очень
душно
1009.6 1003.6
05 14.09 ЮЗ 3 н/о н/о +31.1 +19.1 49 +37 +37 очень
душно
1009.0 1003.0
06 14.09 Ю 4 25 км 3/3
[Cu med, cong]
+31.1 +19.5 50 +37 +41 очень
душно
1008.6 1002.6
07 14.09 ЮЗ 5 н/о н/о +30.5 +20.4 55 +37 +37 очень
душно
1008.6 1002.6
08 14.09 ЮЗ 5 н/о н/о +29.6 +20.2 57 +36 +36 очень
душно
1009.0 1002.9
09 14.09 ЮЗ 3 25 км 3/3
[Cu med, cong]
+29.0 +20.5 60 +36 +36 очень
душно
1009.2 1003.1
10 14.09 Ю 3 н/о н/о +28.7 +20.2 60 +35 +35 очень
душно
1009.6 1003.5
11 14.09 ЮЗ 4 н/о н/о +28.3 +20.6 63 +35 +35 очень
душно
1010.2 1004.1
12 14.09 З 2 25 км 5/5
[Cu Sc]
+28.1 +19.9 61 +34 +34 очень
душно
1010.3 1004.2 +32.1
13 14.09 Ю 1 н/о н/о +28.1 +19.9 61 +34 +34 очень
душно
1010.5 1004.4
14 14.09 С 1 н/о н/о +27.5 +20.3 65 +34 +34 очень
душно
1010.4 1004.3
15 14.09 С 3 н/о н/о +26.2 +20.8 72 +33 +33 очень
душно
1010.2 1004.1
16 14.09 С 3 н/о н/о +25.9 +20.9 74 +32 +32 очень
душно
1010.2 1004.1
18 14.09 С 3 20 км ясно +25.0 +20.5 76 +31 +31 очень
душно
1009.8 1003.6
19 14.09 С 3 н/о н/о +24.8 +20.5 77 +31 +31 очень
душно
1009.5 1003.3
20 14.09 С 2 н/о н/о +24.4 +20.3 78 +30 +30 очень
душно
1009.5 1003.3
21 14.09 С 5 20 км 3/3
[Cu Sc]
+24.3 +20.2 78 +30 +30 очень
душно
1009.7 1003.5
22 14.09 С 4 н/о н/о +24.3 +20.0 77 +30 +30 очень
душно
1009.8 1003.6
23 14.09 С 2 н/о н/о +25.2 +20.0 73 +31 +31 очень
душно
1010.0 1003.8
00 15.09 С 3 20 км 1/1
[Cu hum]
+27.2 +19.8 64 +33 +38 очень
душно
1009.8 1003.7 +24.1
01 15.09 С 2 н/о н/о +29.3 +19.9 57 +36 +36 очень
душно
1009.4 1003.3
02 15.09 СВ 2 н/о н/о +30.6 +19.3 51 +36 +36 очень
душно
1008.4 1002.4
03 15.09 С 4 30 км 3/3
[Cu med, cong]
+32.4 +18.6 44 +37 +45 очень
душно
1007.7 1001.7
04 15.09 Ю 3 н/о н/о +32.0 +18.9 46 +37 +37 очень
душно
1006.7 1000.7
05 15.09 ЮЗ 4 н/о н/о +30.6 +20.5 55 +38 +38 очень
душно
1006.2 1000.2
06 15.09 С 4 25 км 8/8
[Cu Sc]
+31.4 +18.0 45 +36 +37 очень
душно
1005.8 999.8
07 15.09 С 5 н/о н/о +32.2 +18.0 43 +37 +37 очень
душно
1005.4 999.4
08 15.09 С 5 н/о н/о +31.6 +18.2 45 +36 +36 очень
душно
1005.5 999.5
09 15.09 СВ 4 25 км 6/6
[Cu med, cong Ac trans]
+30.5 +19.2 51 +36 +36 очень
душно
1005.8 999.8
10 15.09 С 5 н/о н/о +29.2 +19.2 55 +35 +35 очень
душно
1006.3 1000.3
11 15.09 С 5 н/о н/о +28.4 +19.6 59 +34 +34 очень
душно
1007.0 1000.9
12 15.09 С 5 20 км 8/8
[Cu med, cong Ac trans]
+28.2 +19.2 58 +34 +34 очень
душно
1007.2 1001.1 +32.8
13 15.09 С 5 н/о н/о +27.5 +19.1 60 +33 +33 очень
душно
1007.0 1000.9
14 15.09 С 7 н/о н/о +27.1 +18.4 59 +32 +32 очень
душно
1007.1 1001.0
15 15.09 С 5 н/о н/о +26.8 +18.7 61 +32 +32 очень
душно
1006.9 1000.8
16 15.09 С 4 н/о н/о +26.6 +17.9 59 +31 +31 душно 1006.8 1000.7
17 15.09 С 5 н/о н/о +26.3 +18.2 61 +31 +31 душно 1006.7 1000.6
18 15.09 С 6 25 км 3/3
[Cu hum Ac trans]
+25.5 +18.2 64 +30 +30 душно 1006.3 1000.2
19 15.09 С 6 н/о н/о +25.2 +18.2 65 +30 +30 душно 1006.2 1000.1
21 15.09 С 5 30 км 3/1
[Cu Sc Ac trans]
+24.7 +17.9 66 +29 +29 душно 1006.3 1000.2
22 15.09 С 5 н/о н/о +25.4 +18.1 64 +30 +30 душно 1006.1 1000.0
23 15.09 С 4 н/о н/о +26.2 +18.1 61 +31 +31 очень
душно
1006.4 1000.3
00 16.09 С 5 30 км 3/3
[Cu Sc Ac trans]
+27.3 +16.3 51 +31 +33 душно 1006.5 1000.4 +24.5
03 16.09 СВ 6 30 км 3/3
[Cu hum]
+30.4 +14.1 37 +32 +36 жарко 1005.4 999.4
04 16.09 С 6 н/о н/о +30.2 +13.5 36 +32 +32 жарко 1005.0 999.0
05 16.09 С 8 н/о н/о +31.0 +14.2 36 +33 +33 душно 1004.5 998.5
06 16.09 С 8 35 км 3/3
[Cu hum]
+30.7 +13.5 35 +32 +33 жарко 1004.4 998.4
07 16.09 С 7 н/о н/о +29.7 +13.1 36 +31 +31 жарко 1004.8 998.8
08 16.09 С 8 н/о н/о +29.0 +14.1 40 +31 +31 жарко 1005.3 999.3
09 16.09 С 10 35 км 1/1
[Cu Sc]
+26.9 +13.3 43 +29 +29 жарко 1006.1 1000.0
10 16.09 С 7 н/о н/о +25.7 +14.2 49 +28 +28 жарко 1006.7 1000.6
11 16.09 С 11 н/о н/о +24.8 +14.6 53 +27 +27 жарко 1007.2 1001.0
12 16.09 С 7 30 км 1/1
[Cu hum]
+24.3 +14.4 54 +27 +27 жарко 1008.2 1002.0 +31.7
13 16.09 С 6 н/о н/о +24.1 +14.8 56 +27 +27 жарко 1008.5 1002.3
14 16.09 С 7 н/о н/о +23.7 +14.7 57 +26 +26 жарко 1008.3 1002.1
15 16.09 С 5 н/о н/о +23.6 +15.1 59 +26 +26 жарко 1008.4 1002.2
16 16.09 С 6 н/о н/о +23.4 +15.5 61 +28 +28 душно 1008.4 1002.2
17 16.09 С 5 н/о н/о +23.4 +15.5 61 +28 +28 душно 1008.5 1002.3
18 16.09 С 5 30 км 1/1
[Cu Sc]
+23.3 +15.6 62 +28 +28 душно 1008.6 1002.4
19 16.09 С 5 н/о н/о +23.2 +16.0 64 +28 +28 душно 1008.8 1002.6
20 16.09 С 5 н/о н/о +23.6 +16.7 65 +27 +27 жарко 1009.2 1003.0
21 16.09 СВ 5 40 км 3/3
[Cu Sc]
+23.4 +17.6 70 +29 +29 душно 1009.7 1003.5
22 16.09 СВ 5 н/о н/о +23.9 +17.4 67 +28 +28 душно 1009.9 1003.7
23 16.09 С 6 н/о н/о +24.9 +17.1 62 +29 +29 душно 1010.4 1004.2
00 17.09 С 8 40 км 1/1
[Cu Sc Ci fib]
+26.5 +16.7 55 +30 +31 душно 1010.9 1004.8 +22.9
01 17.09 С 8 н/о н/о +28.2 +15.5 46 +31 +31 душно 1011.0 1004.9
02 17.09 С 5 н/о н/о +30.1 +16.2 43 +33 +33 душно 1010.4 1004.3
03 17.09 С 5 50 км 6/6
[Cu med, cong]
+29.6 +15.7 43 +32 +36 душно 1009.8 1003.7
04 17.09 С 5 н/о н/о +31.5 +15.5 38 +34 +34 душно 1008.9 1002.9
05 17.09 С 7 н/о н/о +31.4 +15.0 37 +34 +34 душно 1008.9 1002.9
06 17.09 С 5 40 км 8/8
[Sc diur, vesp]
+31.3 +15.3 38 +34 +34 душно 1008.4 1002.4
07 17.09 С 4 н/о н/о +30.5 +15.8 41 +33 +33 душно 1008.7 1002.7
08 17.09 С 6 н/о н/о +30.3 +16.0 42 +33 +33 душно 1008.8 1002.8
09 17.09 СВ 6 40 км 3/3
[Cu Sc]
+29.0 +15.9 45 +32 +32 душно 1009.4 1003.3
11 17.09 С 8 н/о н/о +26.8 +15.5 50 +30 +30 душно 1010.6 1004.5
12 17.09 С 6 30 км 1/1
[Cu Sc]
+25.7 +15.1 52 +29 +29 душно 1011.1 1004.9 +32.8
13 17.09 С 4 н/о н/о +25.3 +15.3 54 +28 +28 жарко 1011.7 1005.5
14 17.09 СВ 4 н/о н/о +25.0 +14.8 53 +28 +28 жарко 1011.8 1005.6
15 17.09 С 4 н/о н/о +24.6 +14.7 54 +27 +27 жарко 1011.8 1005.6
16 17.09 С 5 н/о н/о +24.1 +14.8 56 +27 +27 жарко 1011.7 1005.5
17 17.09 СВ 4 н/о н/о +23.8 +14.8 57 +27 +27 жарко 1011.6 1005.4
18 17.09 С 6 25 км 4/3
[Cu hum Ac trans]
+23.5 +14.5 57 +26 +26 жарко 1011.1 1004.9
20 17.09 С 4 н/о н/о +23.0 +14.6 59 +27 +27 душно 1011.3 1005.1
21 17.09 С 5 30 км 8/5
[Sc Ac trans]
+22.7 +14.8 61 +26 +26 жарко 1011.5 1005.3
23 17.09 СВ 4 н/о н/о +23.3 +14.3 57 +27 +27 душно 1012.4 1006.2
00 18.09 СВ 3 35 км 1/1
[Cu hum Ac trans Ci fib]
+24.7 +14.5 53 +27 +33 жарко 1012.2 1006.0 +22.5
01 18.09 С 2 н/о н/о +27.6 +15.6 48 +31 +31 душно 1011.9 1005.8
02 18.09 СВ 3 н/о н/о +28.3 +14.2 42 +30 +30 жарко 1011.6 1005.5
03 18.09 В 3 30 км 4/1
[Cu hum Ac und Ci fib]
+29.3 +14.3 40 +31 +42 жарко 1010.3 1004.2
04 18.09 С 4 н/о н/о +32.0 +13.7 33 +33 +33 жарко 1009.6 1003.6
05 18.09 С 8 н/о н/о +31.7 +13.5 33 +33 +33 жарко 1009.5 1003.5
06 18.09 С 6 30 км 4/3
[Cu hum Ac und Ci fib]
+30.4 +12.8 34 +31 +33 жарко 1010.1 1004.1
07 18.09 С 8 н/о н/о +29.6 +13.0 36 +31 +31 жарко 1010.4 1004.3
09 18.09 С 7 30 км 3/1
[Cu Sc Ac trans Ci fib]
+26.8 +12.5 41 +28 +28 жарко 1011.6 1005.5
10 18.09 С 6 н/о н/о +25.3 +13.5 48 +27 +27 жарко 1012.4 1006.2
11 18.09 С 5 н/о н/о +24.5 +13.1 49 +27 +27 жарко 1013.3 1007.1
12 18.09 С 6 15 км 3/1
[Sc Ci fib]
+23.8 +13.1 51 +26 +26 жарко 1013.9 1007.7 +32.6
13 18.09 С 6 н/о н/о +23.3 +13.2 53 +26 +26 жарко 1014.4 1008.2
14 18.09 СВ 5 н/о н/о +23.1 +12.7 52 +26 +26 жарко 1014.3 1008.1
15 18.09 СВ 4 н/о н/о +22.8 +12.7 53 +26 +26 жарко 1014.6 1008.4
16 18.09 СВ 5 н/о н/о +22.4 +13.2 56 +25 +25 комфорт 1014.7 1008.4
17 18.09 С 5 н/о н/о +22.0 +13.4 58 +25 +25 комфорт 1014.5 1008.2
18 18.09 СВ 5 15 км 8/1
[Cu hum Ac trans Ci fib]
+22.0 +13.6 59 +25 +25 комфорт 1014.5 1008.2
19 18.09 С 4 н/о н/о +22.0 +13.6 59 +25 +25 комфорт 1014.7 1008.4
20 18.09 С 5 н/о н/о +21.9 +13.8 60 +25 +25 комфорт 1014.9 1008.6
21 18.09 С 4 30 км 4/3
[Cu Sc Ac trans]
+21.8 +14.2 62 +25 +25 комфорт 1015.3 1009.0
22 18.09 СВ 4 н/о н/о +22.0 +14.4 62 +25 +25 комфорт 1015.6 1009.3
23 18.09 СВ 6 н/о н/о +22.5 +14.1 59 +26 +26 жарко 1015.8 1009.5
00 19.09 С 7 40 км 1/1
[Cu hum Ac trans]
+23.4 +12.4 50 +26 +28 жарко 1016.0 1009.8 +21.6
01 19.09 СВ 7 н/о н/о +24.3 +11.6 45 +26 +26 жарко 1016.3 1010.1
02 19.09 СВ 6 н/о н/о +25.5 +10.6 39 +26 +26 жарко 1016.0 1009.8
03 19.09 СВ 5 40 км 3/3
[Cu Sc]
+26.6 +10.7 37 +27 +33 жарко 1015.2 1009.0
04 19.09 СВ 3 н/о н/о +28.6 +12.1 36 +30 +30 жарко 1014.3 1008.2
05 19.09 С 3 н/о н/о +28.6 +10.3 32 +29 +29 жарко 1013.5 1007.4
06 19.09 СВ 4 40 км 3/1
[Cu med, cong Ci fib]
+28.4 +8.7 29 +28 +33 жарко 1013.0 1006.9
07 19.09 СВ 4 н/о н/о +28.3 +8.1 28 +28 +28 жарко 1012.9 1006.8
08 19.09 СВ 4 н/о н/о +28.0 +8.3 29 +28 +28 жарко 1012.8 1006.7
09 19.09 СВ 5 30 км 3/1
[Sc Ac trans Ci fib]
+27.1 +8.5 31 +27 +27 жарко 1013.4 1007.3
10 19.09 СВ 6 н/о н/о +25.8 +10.8 39 +27 +27 жарко 1014.5 1008.3
11 19.09 С 5 н/о н/о +24.3 +11.3 44 +26 +26 жарко 1015.0 1008.8
12 19.09 С 6 30 км 4/0
[Ci fib]
+23.1 +11.5 48 +25 +25 комфорт 1015.4 1009.2 +29.6
13 19.09 С 5 н/о н/о +22.0 +11.7 52 +24 +24 комфорт 1015.5 1009.2
14 19.09 СВ 5 н/о н/о +21.3 +11.4 53 +23 +23 комфорт 1015.3 1009.0
15 19.09 С 6 н/о н/о +20.4 +11.1 55 +22 +22 комфорт 1015.4 1009.1
16 19.09 С 3 н/о н/о +19.9 +11.1 57 +22 +22 комфорт 1015.3 1009.0
18 19.09 С 6 30 км 3/0
[Ac trans Ci fib]
+18.6 +10.9 61 +19 +19 прохладно 1015.6 1009.2
19 19.09 С 6 н/о н/о +18.0 +10.6 62 +17 +17 очень
холодно
1015.5 1009.1
20 19.09 С 5 н/о н/о +17.4 +10.8 65 +17 +17 холодно 1015.8 1009.4
21 19.09 С 5 30 км 3/0
[Ac trans Ci fib]
+17.6 +10.5 63 +17 +17 холодно 1016.4 1010.0
22 19.09 С 4 н/о н/о +17.4 +10.5 64 +17 +17 очень
холодно
1016.5 1010.1
23 19.09 С 4 н/о н/о +19.1 +10.7 58 +20 +20 холодно 1016.5 1010.2
00 20.09 С 4 30 км 8/1
[Sc Ac trans Ci fib]
+20.8 +10.3 51 +23 +25 комфорт 1016.5 1010.2 +17.1
01 20.09 В 3 н/о н/о +23.1 +10.2 44 +25 +25 комфорт 1016.4 1010.2
02 20.09 В 3 н/о н/о +25.0 +9.3 37 +26 +26 жарко 1016.1 1009.9
03 20.09 В 2 30 км 9/1
[Cu Sc Ac As]
+23.9 +10.6 43 +25 +30 комфорт 1015.9 1009.7
04 20.09 ЮВ 6 н/о н/о +23.2 +11.0 46 +25 +25 комфорт 1016.2 1010.0
05 20.09 ЮВ 4 н/о н/о +21.5 +12.6 57 +24 +24 комфорт 1016.3 1010.0
06 20.09 В 2 25 км слаб. дождь 9/1
[Frnb Ac As]
+20.8 +13.5 63 +24 +27 комфорт 1016.4 1010.1 1
07 20.09 С 2 н/о н/о +20.7 +14.8 69 +24 +24 комфорт 1017.2 1010.9
08 20.09 В 2 н/о н/о +20.7 +14.8 69 +24 +24 комфорт 1018.0 1011.7
09 20.09 Ю 3 25 км слаб. дождь 10/3
[Frnb Ac As]
+20.4 +15.2 72 +24 +24 комфорт 1019.0 1012.7
10 20.09 ЮВ 5 н/о н/о +18.6 +14.1 75 +19 +19 тепло 1019.3 1012.9
11 20.09 СВ 1 н/о н/о +17.9 +14.4 80 +19 +19 тепло 1019.2 1012.8

 

Местоположение метеостанции Хиросима (Япония): широта 34.40 долгота 132.46 высота над уровнем моря 53 м.

В архиве по умолчанию представлена погода в Хиросиме за последнюю неделю. Архивные данные за месяц целиком и за предыдущие месяцы, начиная с января 2011 года, Вы можете получить, выбрав интересующий диапазон дат из раскрывающегося списка и нажав кнопку "Ввод!".


*Определитесь, кто Вы:
робот инопланетянин человек

Внимание! Время в таблицах - всемирное. Для получения местного времени необходимо прибавить поправку, которая равна 9 ч.

Смотрите также архив погоды в соседних городах и на ближайших метеорологических станциях:

Погода в Куре (Япония) (21 км)
Погода в Хамаде (Япония) (67 км)
Погода в Мацуяме (Япония) (68 км)
Погода в Фукуяме (Япония) (73 км)
Погода в Ямагути (Япония) (96 км)
Погода в Хаги (Япония) (97 км)
Погода в Тадоцу (Япония) (119 км)
Погода в Мацуэ (Япония) (129 км)
Погода в Увадзиме (Япония) (130 км)
Погода в Окаяме (Япония) (136 км)

Пояснения к столбцам:

Ветер - указаны скорость ветра в м/с - средняя за 10 мин, порывы в срок и между сроками (в фигурных скобках) и направление, откуда дует ветер: С - северный, СВ - северо-восточный, В - восточный, ЮВ - юго-восточный, Ю - южный, ЮЗ - юго-западный, З - западный, СЗ - северо-западный.
Видимость - горизонтальная дальность видимости в метрах или километрах. При видимости от 1 до 10 км при отсутствии осадков обычно наблюдается дымка, при ухудшении видимости до 1 км и менее - туман. В сухую погоду видимость может ухудшаться дымом, пылью или мглою.
Явления - указаны атмосферные явления, наблюдавшиеся в срок или в последний час перед сроком; фигурными скобками обозначены явления, наблюдавшиеся между сроками (за 1-3 часа до срока); квадратными скобками обозначены град или гололедные отложения с указанием их диаметра в мм.
Облачность - указаны через наклонную черту общая и нижняя облачность в баллах и высота нижней границы облаков в метрах; квадратными скобками обозначены формы облаков: Ci - перистые, Cs - перисто-слоистые, Cc - перисто-кучевые, Ac - высококучевые, As - высокослоистые, Sc - слоисто-кучевые, Ns - слоисто-дождевые, Cu - кучевые, Cb - кучево-дождевые. Подробнее классификацию облаков см. в Атласе облаков (PDF).
T - Температура воздуха - температура, измеренная на высоте 2 м над землей.
Td - Температура точки росы - температура, при понижении до которой содержащийся в воздухе водяной пар достигнет насыщения.
f - Относительная влажность воздуха - влажноcть воздуха, измеренная на высоте 2 м над землей.
Te - Эффективная температура - температура, которую ощущает одетый по сезону человек в тени. Характеристика душности погоды. При расчете учитывается влияние влажности воздуха и скорости ветра на теплоощущения человека.
Tes - Эффективная температура на солнце - температура, которую ощущает человек, с поправкой на солнечный нагрев. Характеристика знойности погоды. Зависит от высоты солнца над горизонтом, облачности и скорости ветра. Ночью, в пасмурную погоду, а также при ветре 12 м/с и более поправка равна нулю.
P - Атмосферное давление - приведенное к уровню моря атмосферное давление.
Po - Атмосферное давление - измеренное на уровне метеостанции атмосферное давление.
Tmin - Минимальная температура - минимум температуры воздуха на высоте 2 м над землей.
Tmax - Максимальная температура - максимум температуры воздуха на высоте 2 м над землей.
R - Количество осадков - Количество выпавших осадков за период времени, мм. При наведении курсора мыши на число - период времени, за который выпало указанное количество осадков.
R24 - Количество осадков - Количество выпавших осадков за 24 часа, мм.
S - Снежный покров - Высота снежного покрова, см. При наведении курсора мыши на число - состояние снежного покрова и степень покрытия местности в баллах.